Location: Home
(40.5300°N, 105.0300°W)
Time: 19:07:34
(UTC-06:00)

STARLINK-2751 - Visible Passes

Search period start: 23 October 2021 00:00
Search period end: 02 November 2021 00:00
Orbit: 521 x 523 km, 53.0° (Epoch: 23 October)

Date Brightness Start Highest point End Pass type
(mag) Time Alt. Az. Time Alt. Az. Time Alt. Az.
23 Oct 6.4 04:27:14 15° NE 04:27:14 15° NE 04:28:00 10° NE visible
23 Oct 4.9 06:02:17 22° NW 06:03:17 24° NNW 06:06:35 10° NNE visible
24 Oct 5.0 05:49:14 22° NNW 05:49:31 22° NNW 05:52:42 10° NNE visible
25 Oct 5.3 05:38:15 20° NNW 05:38:15 20° NNW 05:41:01 10° NNE visible
26 Oct 5.5 05:29:21 18° N 05:29:21 18° N 05:31:33 10° NNE visible
27 Oct 5.8 05:22:34 16° N 05:22:34 16° N 05:24:19 10° NNE visible
28 Oct 5.9 05:17:55 14° N 05:17:55 14° N 05:19:21 10° NNE visible
28 Oct 5.8 06:55:33 10° NNW 06:57:59 15° NNE 07:00:26 10° NE visible
29 Oct 6.0 05:15:26 13° N 05:15:26 13° N 05:16:43 10° NNE visible
29 Oct 5.7 06:52:58 10° NNW 06:55:41 17° NNE 06:58:25 10° ENE visible
30 Oct 6.1 05:15:06 13° N 05:15:06 13° N 05:16:28 10° NNE visible
30 Oct 5.5 06:52:36 10° NNW 06:55:40 20° NNE 06:58:43 10° ENE visible
31 Oct 6.0 05:16:59 13° N 05:16:59 13° N 05:18:41 10° NE visible
31 Oct 5.3 06:54:29 10° NNW 06:57:52 26° NNE 07:01:18 10° E visible
01 Nov 5.9 05:21:04 15° N 05:21:06 15° N 05:23:24 10° NE visible
01 Nov 4.8 06:58:38 10° NW 07:02:20 35° NNE 07:06:06 10° E visible
